Temperature
16 16 15 15 15 16 16 16 16 16 16 16 16 16 16 16 16 16 16 15 15 15 15 15 15 15 15 15 15 15 15 15 15 15 15 15 15 15 15 15 15 15 15
16 16 15 15 15 16 16 16 16 16 16 16 16 16 16 16 16 16 15 15 15 15 15 15 15 15 15 15 15 15 15 15 15 15 15 15 15 15 15 14 14 14 14
16 16 15 15 15 16 16 16 16 16 16 16 16 16 16 16 15 15 15 15 15 15 15 15 15 15 15 15 15 15 15 15 15 15 15 14 14 14 14 14 14 14 14
16 15 15 15 15 15 15 15 15 15 15 16 16 15 15 15 15 15 15 15 15 15 15 15 15 15 15 15 15 15 15 15 15 14 14 14 14 14 14 14 14 14 14
15 15 15 15 15 15 15 15 15 15 15 15 15 15 15 15 15 15 15 15 15 15 15 15 14 14 14 14 14 14 14 14 14 14 14 14 14 14 14 14 13 14 13
15 15 15 15 15 15 15 15 15 15 15 15 15 15 15 15 15 15 15 15 14 14 14 14 14 14 14 14 14 14 14 14 14 14 14 14 14 13 13 13 13 13 13
15 15 15 15 15 15 15 15 15 15 15 15 15 15 15 15 15 15 14 14 14 14 14 14 14 14 14 14 14 14 14 14 14 14 13 13 13 13 13 13 13 13 13
15 14 14 15 15 15 14 14 14 15 15 15 15 15 14 14 14 14 14 14 14 14 14 14 14 14 13 13 13 13 13 13 13 13 13 13 13 13 13 13 13 13 13
14 14 14 14 14 14 14 14 14 14 14 14 14 14 14 14 14 14 14 14 14 14 14 14 14 13 13 13 13 13 13 13 13 13 13 13 13 13 13 12 12 12 12
14 14 14 14 14 14 14 14 14 14 14 14 14 14 14 14 14 14 14 14 14 13 13 13 13 13 13 13 13 13 13 12 12 13 12 12 12 12 12 12 12 12 12
13 13 13 14 14 14 14 14 14 14 14 14 14 14 14 14 14 13 13 13 13 13 13 13 13 13 13 13 13 12 12 12 12 12 12 12 12 12 12 12 12 12 12
13 13 13 13 13 13 13 13 13 13 13 13 13 13 13 13 13 13 13 13 13 13 13 13 13 13 13 12 12 12 12 12 12 12 12 12 12 12 12 12 12 12 12
13 13 13 13 13 13 13 13 13 13 13 13 13 13 13 13 13 13 13 13 12 12 12 12 12 12 12 12 12 12 12 12 12 12 12 12 12 11 11 11 11 11 11
12 13 13 13 13 13 13 13 13 13 13 13 13 13 13 13 13 13 12 12 12 12 12 12 12 12 12 12 12 12 12 12 12 12 12 11 11 11 11 11 11 11 11
12 12 12 12 12 12 12 13 12 13 13 13 13 13 12 12 12 12 12 12 12 12 12 12 12 12 12 12 11 11 11 11 11 11 11 11 11 11 11 11 11 11 11
12 12 12 12 12 12 12 12 12 12 12 12 12 12 12 12 12 12 12 12 12 12 12 11 11 11 11 11 11 11 11 11 11 11 11 11 11 11 11 11 10 10 10
11 11 11 11 11 11 12 12 12 12 12 12 12 12 12 12 12 12 12 12 12 11 11 11 11 11 11 11 11 11 11 11 11 11 11 11 11 11 10 10 10 10 10
10 11 11 11 11 11 11 11 11 11 12 11 11 11 11 11 11 11 11 11 11 11 11 11 11 11 11 11 11 11 11 10 10 10 10 10 10 10 10 10 10 10 10
10 10 10 10 11 11 11 11 11 11 11 11 11 11 11 11 11 11 11 11 11 11 11 11 11 10 10 10 10 10 10 10 10 10 10 10 10 10 10 10 10 10 9
9 10 10 10 10 10 10 10 10 10 10 10 10 10 10 10 10 10 10 11 11 10 10 10 10 10 10 10 10 10 10 10 10 10 10 10 10 10 10 9 9 9 9
9 9 9 10 10 10 10 10 10 10 10 10 10 10 10 10 10 10 10 10 10 10 10 10 10 9 9 9 9 9 9 9 9 9 9 9 9 9 9 9 9 9 9
8 9 9 9 9 9 9 9 9 9 9 9 9 9 9 9 9 9 10 10 9 9 9 9 9 9 9 9 9 9 8 9 9 9 9 9 9 9 9 9 9 9 9
8 8 8 9 9 9 9 9 9 9 9 9 9 9 9 9 9 9 9 9 9 9 9 9 9 9 8 8 8 8 8 8 8 9 9 9 9 9 9 9 9 8 8
7 8 8 8 8 8 8 8 8 8 8 8 8 8 8 8 8 8 8 8 8 8 8 8 8 8 8 8 8 7 7 7 7 7 8 8 8 8 8 8 8 8 8
7 7 7 7 8 8 7 8 8 8 8 8 8 8 8 8 8 8 8 8 8 8 8 8 7 7 7 7 7 7 7 6 6 6 7 7 8 8 8 8 8 8 8
6 6 7 7 7 7 7 7 7 7 7 7 7 7 7 7 7 7 7 7 7 7 7 7 7 7 7 7 7 6 6 6 6 6 6 6 6 7 7 7 7 7 7
Wind_Speed
2 3 8 9 10 10 11 11 11 12 12 13 13 13 13 13 13 13 13 13 13 13 14 14 14 15 15 15 16 16 16 15 16 16 16 15 16 16 15 15 14 14 15
4 5 9 10 11 11 11 11 12 12 12 13 13 13 13 13 12 12 13 13 13 13 14 14 14 14 15 15 15 16 16 16 15 15 15 14 15 15 14 14 13 13 15
4 6 9 10 11 11 11 11 11 12 12 12 12 12 12 12 12 12 12 12 12 13 13 13 13 14 14 14 15 15 15 15 14 13 13 12 12 13 13 13 13 14 14
5 7 8 10 11 12 12 11 11 11 12 12 12 12 12 12 11 12 11 11 12 12 12 12 13 13 13 13 14 14 13 13 13 12 11 10 10 12 13 13 13 13 13
5 6 8 10 10 11 12 11 11 12 12 12 11 11 11 11 11 11 11 11 11 11 12 11 12 12 12 12 12 13 12 12 12 11 10 9 9 11 12 12 12 13 13
4 6 9 10 10 11 12 11 11 12 12 12 11 11 11 11 11 11 11 10 10 10 11 11 11 11 11 11 11 12 12 11 11 10 9 8 8 10 11 11 12 12 12
3 5 8 10 10 10 11 11 11 11 11 11 11 10 10 10 10 10 10 10 10 10 10 10 11 11 11 11 11 11 11 10 10 9 7 6 7 9 10 11 11 12 12
3 4 6 10 11 10 10 10 10 11 11 10 10 10 9 10 10 10 9 9 9 9 9 9 10 10 10 10 10 10 10 9 8 7 6 5 7 9 10 10 10 10 11
4 4 4 6 9 10 9 9 10 10 10 10 9 9 9 10 10 9 9 9 8 8 8 8 9 9 9 9 10 9 9 8 7 6 5 5 7 8 9 9 9 10 10
4 3 3 4 6 7 8 9 9 9 9 9 9 9 9 9 9 8 8 8 8 8 8 8 8 8 8 8 8 8 8 7 6 5 5 4 6 7 8 8 8 8 8
3 3 3 4 4 5 6 7 8 8 8 8 7 8 8 7 7 7 7 7 7 7 7 7 7 7 8 8 7 7 7 6 5 4 3 4 4 5 6 7 7 7 7
2 2 2 2 3 4 5 5 5 6 6 6 6 6 6 6 6 6 6 6 6 6 6 6 6 6 7 6 6 6 6 5 4 2 2 3 3 3 4 5 5 6 5
1 1 1 2 3 3 3 4 4 4 5 5 6 5 6 5 5 5 4 5 5 5 5 5 5 5 6 5 5 5 4 4 2 1 1 2 2 2 3 4 5 5 5
1 1 1 2 2 2 3 3 3 3 3 3 4 5 5 4 3 3 3 3 4 4 4 4 4 4 5 5 5 4 3 3 2 1 2 2 3 3 3 3 4 5 4
1 1 1 1 1 2 3 2 3 3 3 4 4 4 5 3 3 2 3 3 3 4 4 3 3 3 3 3 3 3 2 2 2 2 2 3 3 4 4 4 5 5 5
1 1 1 1 1 2 2 2 2 2 3 4 4 4 4 4 3 3 3 3 2 3 3 3 3 3 2 3 2 2 2 2 2 2 2 3 4 5 5 5 5 5 5
2 1 0 0 1 2 2 2 2 3 3 3 3 3 4 3 4 3 3 2 2 3 3 3 3 3 2 1 1 1 2 2 2 3 3 3 3 4 5 5 5 5 5
1 1 0 1 1 1 2 2 2 3 3 2 3 3 3 3 3 3 2 2 2 3 3 2 2 1 1 1 1 1 1 2 2 3 3 3 3 3 3 4 5 6 6
2 2 1 1 1 1 1 2 3 4 4 3 3 2 2 2 3 3 2 1 2 2 1 2 1 1 1 0 1 1 1 1 2 2 2 3 3 3 3 4 6 6 6
2 2 2 1 1 1 1 1 2 3 2 3 3 2 2 2 2 2 2 2 2 2 1 0 1 1 1 1 1 1 1 2 1 1 2 2 2 3 3 3 4 4 6
1 2 2 2 1 1 1 1 1 1 1 1 2 3 2 2 2 2 2 1 1 1 1 0 1 1 0 0 1 1 2 1 1 2 2 1 1 2 2 3 3 3 3
3 3 2 2 2 2 2 2 1 2 1 1 2 3 3 2 1 1 2 1 1 1 1 1 1 1 0 1 1 1 1 2 2 2 1 2 2 2 2 3 3 3 3
2 3 2 2 2 2 2 2 2 2 2 1 2 1 3 2 1 2 1 1 1 1 1 2 2 2 1 1 1 2 2 3 2 2 2 2 2 2 2 3 4 4 4
2 2 2 2 2 2 2 3 3 2 1 1 1 0 1 2 1 1 0 0 1 1 1 2 2 1 2 1 1 0 1 1 1 2 2 2 2 2 3 3 3 4 5
1 1 1 2 2 2 2 3 3 2 2 1 1 1 1 1 2 2 2 1 1 2 2 2 1 1 2 2 2 1 1 0 1 2 3 2 2 2 3 3 3 4 5
2 1 1 2 2 2 2 2 3 3 2 1 1 1 1 1 1 1 1 1 1 2 2 2 3 3 3 3 2 2 2 2 2 2 3 3 3 3 3 3 3 4 5
Wind_Direction
195 178 163 146 139 132 126 121 115 111 108 108 108 107 106 104 101 99 95 94 94 95 95 94 93 92 90 89 88 87 87 88 87 86 88 89 89 87 85 82 81 80 82
166 161 154 146 139 134 130 124 117 115 113 110 108 108 108 107 105 103 98 97 96 96 97 96 94 93 92 91 90 89 87 86 86 84 84 87 90 90 88 86 85 86 84
139 147 148 144 140 136 132 127 121 119 116 114 112 110 109 109 108 105 101 99 98 97 98 98 97 96 95 93 92 91 89 88 85 82 79 80 88 91 90 88 86 88 86
138 142 145 143 140 137 134 131 129 124 120 117 115 113 111 111 110 106 103 101 99 98 99 100 100 99 97 95 95 93 92 89 85 80 75 77 87 93 92 90 88 90 88
126 139 147 144 141 140 136 134 134 130 124 119 117 116 115 113 111 109 106 104 101 99 100 102 102 101 99 98 96 95 94 91 85 78 75 76 85 93 93 90 89 91 89
116 130 145 145 142 141 137 135 135 132 128 123 120 119 118 115 112 109 108 108 106 104 102 104 104 102 102 101 101 98 96 93 87 78 75 77 88 96 96 95 95 94 91
111 120 143 144 138 138 138 137 135 131 129 126 122 120 120 116 113 112 110 110 111 110 108 107 107 106 104 103 104 103 98 94 91 83 76 81 97 101 101 99 98 94 90
109 107 137 145 140 138 135 137 136 133 129 127 124 121 120 118 116 114 112 112 113 114 113 110 111 111 109 107 107 106 100 94 92 89 84 86 104 107 104 101 101 98 94
83 86 101 137 143 142 140 137 133 132 128 124 124 123 121 120 118 117 117 116 115 116 115 112 114 112 111 113 113 109 104 95 92 90 91 94 109 110 106 104 103 100 97
62 72 77 106 128 134 139 141 135 129 127 124 122 124 123 124 125 121 119 120 120 119 117 113 116 115 113 112 112 111 107 98 93 93 96 105 108 116 113 109 109 107 103
48 41 63 85 104 123 133 141 138 133 128 122 121 123 123 122 125 125 120 121 120 120 118 117 118 119 116 111 110 108 107 102 101 101 114 122 116 118 117 116 115 113 110
28 14 38 77 86 113 133 132 129 124 121 114 113 115 119 121 123 126 128 125 122 120 122 119 118 117 111 104 106 106 106 103 105 113 141 142 142 130 133 132 128 122 119
318 8 21 64 82 95 107 116 114 115 112 110 112 114 115 113 116 117 118 122 120 117 114 114 107 113 116 113 109 110 114 111 111 132 178 176 178 173 165 162 154 141 133
320 335 3 52 83 81 89 106 110 108 110 113 120 120 117 111 109 115 112 113 115 120 114 113 111 115 120 125 125 122 123 125 141 180 218 221 218 213 208 197 172 167 159
319 320 343 39 89 97 83 100 108 111 121 125 120 121 124 124 132 120 117 116 119 123 126 119 117 120 120 121 126 128 133 150 172 197 232 246 243 242 233 220 196 184 182
261 300 2 28 67 96 115 112 122 112 127 125 123 127 128 129 132 134 128 119 120 132 138 138 136 129 129 128 131 145 166 180 189 201 222 246 255 250 242 231 217 210 207
224 203 111 185 73 95 109 102 116 105 107 113 127 136 134 129 134 134 137 133 131 143 139 127 120 115 125 129 172 184 183 195 201 210 219 228 249 258 245 233 234 234 229
207 175 165 127 93 118 115 91 100 96 92 92 120 135 138 132 130 129 136 144 134 134 128 144 139 124 140 176 223 240 215 202 214 219 218 223 230 234 241 239 241 240 240
208 183 149 123 147 167 129 91 82 91 88 76 87 102 117 130 135 129 128 114 127 116 124 166 148 141 158 200 242 251 250 237 232 224 219 224 222 227 232 244 250 249 250
209 168 144 98 102 124 116 96 78 84 78 66 69 80 102 107 113 120 112 101 111 110 88 109 139 122 151 187 258 292 283 267 239 227 226 210 216 225 229 239 245 246 247
158 147 145 108 103 108 126 147 159 145 127 96 55 53 79 84 99 103 92 110 122 153 164 145 80 95 49 62 64 351 327 286 245 237 218 199 211 225 228 237 237 233 242
177 172 159 149 149 151 167 172 172 149 130 108 43 39 43 61 79 111 99 129 114 150 131 139 93 104 84 115 111 83 328 316 281 249 224 210 226 232 236 248 241 238 240
179 186 176 165 150 151 132 111 79 83 81 57 27 17 11 27 58 59 75 138 144 152 189 195 168 150 189 256 120 136 157 237 289 289 246 234 232 232 245 256 248 248 244
207 196 168 152 135 144 140 139 128 138 157 193 204 250 348 11 26 40 31 190 191 192 206 219 186 177 162 202 268 258 192 175 188 290 299 268 255 244 246 257 250 253 252
188 179 172 145 132 140 148 157 162 171 187 176 146 184 239 337 359 4 354 316 233 216 212 211 214 202 191 194 199 194 216 279 188 201 270 296 302 265 261 258 250 254 254
45 75 118 150 149 150 155 170 184 189 184 172 184 209 236 250 280 323 328 304 270 245 227 219 215 219 217 204 208 200 187 197 212 207 238 271 281 279 274 256 248 249 247
Height
1509 1510 1512 1514 1515 1516 1517 1518 1519 1520 1521 1522 1523 1523 1524 1525 1526 1527 1527 1528 1528 1529 1529 1530 1531 1531 1532 1532 1533 1533 1534 1534 1534 1535 1535 1536 1536 1536 1537 1537 1537 1538 1538
1508 1510 1512 1513 1515 1516 1517 1519 1520 1521 1522 1522 1523 1524 1525 1526 1527 1527 1528 1529 1529 1530 1530 1531 1532 1532 1533 1533 1534 1534 1535 1535 1535 1536 1536 1537 1537 1538 1538 1538 1539 1539 1539
1508 1510 1511 1513 1515 1516 1518 1519 1520 1521 1522 1523 1524 1525 1525 1526 1527 1528 1529 1529 1530 1531 1531 1532 1533 1533 1534 1534 1535 1535 1535 1536 1536 1537 1537 1538 1538 1539 1539 1539 1540 1540 1540
1508 1510 1511 1513 1515 1516 1518 1519 1520 1521 1523 1523 1524 1525 1526 1527 1528 1528 1529 1530 1531 1531 1532 1533 1533 1534 1534 1535 1535 1536 1536 1537 1537 1538 1538 1539 1539 1540 1540 1540 1541 1541 1541
1508 1510 1511 1513 1515 1516 1517 1519 1520 1522 1523 1524 1525 1525 1526 1527 1528 1529 1530 1530 1531 1532 1533 1533 1534 1534 1535 1536 1536 1536 1537 1537 1538 1539 1539 1539 1540 1541 1541 1541 1541 1542 1542
1508 1510 1511 1513 1515 1516 1517 1519 1520 1522 1523 1524 1525 1526 1527 1528 1528 1529 1530 1531 1531 1532 1533 1534 1534 1535 1535 1536 1536 1537 1538 1538 1539 1539 1540 1540 1541 1541 1542 1542 1542 1543 1543
1508 1510 1512 1513 1515 1516 1517 1519 1520 1522 1523 1524 1525 1526 1527 1528 1529 1529 1530 1531 1531 1532 1533 1534 1535 1535 1536 1536 1537 1537 1538 1539 1539 1540 1540 1541 1541 1542 1542 1542 1543 1543 1543
1508 1510 1512 1513 1514 1516 1517 1519 1520 1522 1523 1524 1525 1526 1527 1528 1528 1529 1530 1531 1531 1532 1533 1534 1535 1535 1536 1537 1537 1538 1538 1539 1539 1540 1540 1541 1542 1542 1542 1543 1543 1543 1544
1508 1509 1511 1513 1514 1516 1517 1519 1520 1522 1523 1524 1525 1526 1527 1527 1528 1529 1530 1530 1531 1532 1533 1534 1534 1535 1536 1537 1537 1538 1539 1539 1540 1540 1541 1541 1542 1542 1542 1543 1543 1544 1544
1508 1509 1510 1512 1513 1515 1517 1518 1520 1521 1522 1523 1524 1525 1526 1527 1528 1529 1529 1530 1531 1532 1532 1533 1534 1535 1536 1536 1537 1538 1538 1539 1540 1540 1541 1541 1542 1542 1543 1543 1543 1543 1543
1507 1508 1509 1510 1512 1514 1516 1517 1519 1520 1522 1523 1524 1525 1525 1526 1527 1528 1529 1529 1530 1531 1532 1533 1533 1534 1535 1536 1537 1537 1538 1539 1539 1540 1540 1541 1542 1542 1542 1543 1543 1543 1543
1505 1506 1508 1509 1511 1513 1515 1516 1518 1519 1520 1522 1522 1523 1524 1525 1526 1527 1528 1529 1529 1530 1531 1532 1533 1533 1534 1535 1536 1537 1537 1538 1538 1539 1540 1541 1541 1541 1542 1542 1542 1543 1543
1504 1505 1506 1508 1510 1511 1513 1515 1516 1518 1519 1520 1521 1522 1523 1524 1525 1526 1526 1527 1528 1529 1530 1531 1532 1532 1533 1534 1535 1535 1536 1537 1537 1538 1539 1539 1540 1540 1541 1541 1541 1542 1542
1503 1503 1504 1506 1508 1509 1511 1513 1514 1516 1517 1518 1519 1520 1521 1522 1523 1524 1525 1526 1526 1527 1528 1529 1530 1531 1532 1532 1533 1534 1535 1535 1536 1537 1537 1538 1539 1539 1539 1539 1539 1540 1541
1501 1501 1502 1505 1506 1507 1509 1511 1512 1514 1515 1517 1517 1518 1519 1520 1521 1522 1523 1524 1525 1525 1526 1527 1528 1529 1530 1531 1531 1532 1533 1534 1534 1535 1536 1536 1537 1537 1538 1538 1538 1538 1539
1498 1499 1501 1502 1503 1505 1507 1508 1510 1512 1513 1514 1515 1516 1517 1518 1519 1520 1521 1522 1523 1524 1524 1525 1526 1527 1528 1529 1529 1530 1531 1531 1532 1533 1534 1534 1535 1535 1536 1536 1536 1536 1537
1496 1497 1499 1500 1501 1503 1504 1506 1507 1509 1511 1512 1513 1514 1515 1516 1517 1518 1519 1520 1520 1521 1522 1523 1524 1525 1526 1526 1527 1528 1528 1529 1530 1530 1531 1532 1533 1533 1533 1534 1534 1535 1535
1494 1495 1497 1498 1499 1500 1502 1503 1505 1506 1508 1510 1511 1512 1513 1514 1515 1516 1517 1517 1518 1519 1519 1520 1521 1522 1523 1524 1524 1525 1526 1526 1527 1528 1528 1529 1530 1530 1531 1531 1532 1532 1532
1492 1493 1495 1496 1498 1499 1500 1501 1503 1504 1506 1507 1508 1509 1510 1511 1513 1514 1514 1515 1516 1516 1517 1517 1518 1519 1519 1520 1521 1522 1523 1523 1524 1525 1525 1526 1527 1527 1528 1528 1529 1530 1530
1490 1491 1492 1494 1495 1497 1498 1499 1500 1502 1503 1505 1506 1507 1508 1509 1510 1511 1511 1512 1513 1513 1514 1514 1515 1516 1516 1517 1518 1519 1519 1520 1520 1521 1522 1523 1523 1524 1524 1525 1526 1526 1526
1487 1488 1489 1491 1492 1494 1495 1496 1497 1499 1500 1502 1503 1504 1505 1506 1507 1508 1508 1509 1510 1510 1510 1511 1512 1513 1513 1514 1515 1515 1516 1516 1517 1518 1518 1519 1519 1520 1521 1521 1522 1522 1523
1484 1485 1487 1488 1490 1491 1493 1494 1495 1497 1498 1499 1500 1501 1502 1503 1504 1504 1505 1506 1506 1507 1507 1507 1508 1509 1510 1511 1511 1511 1512 1513 1512 1514 1514 1515 1516 1517 1517 1518 1518 1518 1518
1481 1482 1484 1485 1487 1488 1490 1492 1493 1494 1495 1496 1497 1498 1499 1500 1501 1502 1502 1503 1503 1504 1504 1504 1505 1506 1507 1508 1509 1510 1510 1509 1509 1509 1510 1511 1512 1512 1513 1514 1514 1514 1514
1479 1480 1482 1483 1484 1486 1488 1489 1489 1490 1491 1492 1493 1495 1496 1497 1498 1498 1499 1499 1500 1500 1500 1501 1502 1503 1504 1504 1505 1506 1508 1507 1507 1506 1506 1507 1508 1508 1509 1509 1510 1510 1510
1476 1478 1479 1481 1482 1483 1485 1486 1487 1488 1489 1490 1491 1492 1493 1494 1494 1494 1495 1495 1496 1496 1497 1498 1499 1499 1500 1501 1502 1502 1503 1504 1504 1504 1502 1503 1503 1504 1504 1505 1505 1505 1506
1475 1476 1477 1478 1479 1480 1482 1483 1484 1485 1485 1486 1487 1488 1489 1490 1490 1491 1491 1492 1492 1493 1493 1494 1495 1496 1497 1497 1498 1499 1499 1500 1500 1501 1500 1499 1499 1499 1499 1500 1500 1500 1500